When you browse on this site, cookies collect data to enhance your experience and personalize the content and advertising you see.
Visit our Privacy Policy to learn more. By continuing to use the site, you agree to this use of cookies and data.
  • Em Portugal
  • Lista de países
  • Para 7 dias
  • Temperatura da água
  • Mapa do tempo
  • Widgets de tempo
  • user-avatar
    Iniciar Sessão

    Previsão horária em Larisa

    Hoje, 2 Junho, Terça-feira

    Tempo Temperatura Precipitação Vento Pressão Humidade
    00:00 +18°C° 0 mm 1 m/s 750 mmHg 74%
    01:00 +16°C° 0 mm 1 m/s 750 mmHg 74%
    02:00 +16°C° 0 mm 1 m/s 750 mmHg 76%
    03:00 +16°C° 0 mm 1 m/s 750 mmHg 77%
    04:00 +15°C° 0 mm 1 m/s 750 mmHg 78%
    05:00 +16°C° 0 mm 1 m/s 750 mmHg 74%
    06:00 +19°C° 0 mm 1 m/s 750 mmHg 69%
    07:00 +20°C° 0 mm 1 m/s 750 mmHg 65%
    08:00 +21°C° 0 mm 1 m/s 750 mmHg 59%
    09:00 +23°C° 0 mm 1 m/s 750 mmHg 54%
    10:00 +24°C° 0 mm 1 m/s 750 mmHg 48%
    11:00 +25°C° 0.1 mm 1 m/s 750 mmHg 46%
    12:00 +26°C° 0.1 mm 1 m/s 749 mmHg 44%
    13:00 +26°C° 0.1 mm 1 m/s 749 mmHg 41%
    14:00 +26°C° 0 mm 1 m/s 749 mmHg 42%
    15:00 +26°C° 0 mm 2 m/s 748 mmHg 43%
    16:00 +26°C° 0 mm 2 m/s 748 mmHg 44%
    17:00 +25°C° 0.2 mm 2 m/s 748 mmHg 51%
    18:00 +23°C° 0.2 mm 2 m/s 748 mmHg 58%
    19:00 +22°C° 0.2 mm 1 m/s 748 mmHg 65%
    20:00 +21°C° 1 mm 1 m/s 748 mmHg 69%
    21:00 +20°C° 1 mm 1 m/s 749 mmHg 74%
    22:00 +19°C° 1 mm 1 m/s 749 mmHg 79%
    23:00 +18°C° 0.1 mm 1 m/s 749 mmHg 79%

    Amanhã, 3 Junho, Quarta-feira

    Tempo Temperatura Precipitação Vento Pressão Humidade
    00:00 +18°C° 0.1 mm 1 m/s 749 mmHg 79%
    01:00 +18°C° 0.1 mm 1 m/s 749 mmHg 80%
    02:00 +18°C° 0 mm 1 m/s 749 mmHg 79%
    03:00 +16°C° 0 mm 1 m/s 749 mmHg 78%
    04:00 +16°C° 0 mm 1 m/s 749 mmHg 77%
    05:00 +18°C° 0 mm 1 m/s 749 mmHg 73%
    06:00 +19°C° 0 mm 1 m/s 749 mmHg 69%
    07:00 +20°C° 0 mm 1 m/s 749 mmHg 66%
    08:00 +21°C° 0.1 mm 1 m/s 749 mmHg 62%
    09:00 +20°C° 0.1 mm 2 m/s 749 mmHg 58%
    10:00 +21°C° 0.1 mm 2 m/s 749 mmHg 54%
    11:00 +23°C° 0.1 mm 2 m/s 749 mmHg 52%
    12:00 +24°C° 0.1 mm 2 m/s 749 mmHg 50%
    13:00 +25°C° 0.1 mm 2 m/s 749 mmHg 48%
    14:00 +24°C° 0.2 mm 2 m/s 749 mmHg 50%
    15:00 +24°C° 0.2 mm 3 m/s 749 mmHg 52%
    16:00 +24°C° 0.2 mm 3 m/s 749 mmHg 53%
    17:00 +21°C° 0.4 mm 3 m/s 749 mmHg 60%
    18:00 +20°C° 0.4 mm 2 m/s 749 mmHg 67%
    19:00 +19°C° 0.4 mm 1 m/s 750 mmHg 74%
    20:00 +19°C° 0 mm 1 m/s 750 mmHg 75%
    21:00 +18°C° 0 mm 1 m/s 751 mmHg 76%
    22:00 +16°C° 0 mm 0 m/s 751 mmHg 76%
    23:00 +16°C° 0 mm 0 m/s 751 mmHg 77%

    Depois de amanhã, 4 Junho, Quinta-feira

    Tempo Temperatura Precipitação Vento Pressão Humidade
    00:00 +15°C° 0 mm 0 m/s 751 mmHg 77%
    01:00 +15°C° 0 mm 0 m/s 751 mmHg 78%
    02:00 +15°C° 0 mm 0 m/s 751 mmHg 79%
    03:00 +15°C° 0 mm 0 m/s 750 mmHg 81%
    04:00 +14°C° 0 mm 0 m/s 750 mmHg 82%
    05:00 +18°C° 0 mm 1 m/s 751 mmHg 78%
    06:00 +19°C° 0 mm 1 m/s 751 mmHg 73%
    07:00 +21°C° 0 mm 1 m/s 751 mmHg 69%
    08:00 +22°C° 0 mm 1 m/s 751 mmHg 63%
    09:00 +24°C° 0 mm 1 m/s 751 mmHg 57%
    10:00 +26°C° 0 mm 1 m/s 752 mmHg 51%
    11:00 +27°C° 0 mm 1 m/s 752 mmHg 47%
    12:00 +28°C° 0 mm 1 m/s 751 mmHg 43%
    13:00 +29°C° 0 mm 2 m/s 751 mmHg 38%
    14:00 +29°C° 0 mm 2 m/s 751 mmHg 39%
    15:00 +29°C° 0 mm 2 m/s 751 mmHg 40%
    16:00 +29°C° 0 mm 2 m/s 751 mmHg 40%
    17:00 +27°C° 0 mm 2 m/s 751 mmHg 47%
    18:00 +25°C° 0 mm 2 m/s 751 mmHg 55%
    19:00 +23°C° 0 mm 2 m/s 752 mmHg 62%
    20:00 +23°C° 0 mm 1 m/s 752 mmHg 62%
    21:00 +22°C° 0 mm 1 m/s 752 mmHg 62%
    22:00 +21°C° 0 mm 1 m/s 752 mmHg 62%
    23:00 +21°C° 0 mm 1 m/s 752 mmHg 64%

    5 Junho, Sexta-feira

    Tempo Temperatura Precipitação Vento Pressão Humidade
    00:00 +20°C° 0 mm 1 m/s 752 mmHg 65%
    01:00 +20°C° 0 mm 1 m/s 752 mmHg 67%
    02:00 +19°C° 0 mm 1 m/s 752 mmHg 68%
    03:00 +19°C° 0 mm 1 m/s 751 mmHg 70%
    04:00 +18°C° 0 mm 1 m/s 751 mmHg 71%
    05:00 +20°C° 0 mm 1 m/s 751 mmHg 67%
    06:00 +21°C° 0 mm 1 m/s 751 mmHg 62%
    07:00 +22°C° 0 mm 1 m/s 751 mmHg 58%
    08:00 +24°C° 0 mm 1 m/s 751 mmHg 53%
    09:00 +25°C° 0 mm 1 m/s 751 mmHg 48%
    10:00 +27°C° 0 mm 1 m/s 751 mmHg 43%
    11:00 +27°C° 0 mm 2 m/s 751 mmHg 41%
    12:00 +28°C° 0 mm 2 m/s 751 mmHg 40%
    13:00 +28°C° 0 mm 2 m/s 750 mmHg 38%
    14:00 +28°C° 0 mm 2 m/s 750 mmHg 42%
    15:00 +27°C° 0 mm 2 m/s 750 mmHg 46%
    16:00 +27°C° 0 mm 2 m/s 750 mmHg 50%
    17:00 +25°C° 0 mm 1 m/s 750 mmHg 50%
    18:00 +24°C° 0 mm 1 m/s 750 mmHg 50%
    19:00 +23°C° 0 mm 1 m/s 750 mmHg 51%
    20:00 +23°C° 0 mm 1 m/s 750 mmHg 52%
    21:00 +22°C° 0 mm 1 m/s 750 mmHg 52%
    22:00 +21°C° 0 mm 1 m/s 750 mmHg 53%
    23:00 +21°C° 0 mm 1 m/s 749 mmHg 56%

    6 Junho, Sábado

    Tempo Temperatura Precipitação Vento Pressão Humidade
    00:00 +20°C° 0 mm 1 m/s 749 mmHg 58%
    01:00 +20°C° 0 mm 1 m/s 749 mmHg 61%
    02:00 +19°C° 0 mm 1 m/s 749 mmHg 62%
    03:00 +19°C° 0 mm 1 m/s 749 mmHg 63%
    04:00 +19°C° 0 mm 1 m/s 749 mmHg 64%
    05:00 +20°C° 0 mm 1 m/s 749 mmHg 61%
    06:00 +21°C° 0 mm 1 m/s 749 mmHg 57%
    07:00 +23°C° 0 mm 1 m/s 749 mmHg 53%
    08:00 +25°C° 0 mm 1 m/s 750 mmHg 51%
    09:00 +26°C° 0 mm 2 m/s 750 mmHg 48%
    10:00 +28°C° 0 mm 2 m/s 750 mmHg 45%
    11:00 +29°C° 0 mm 2 m/s 749 mmHg 43%
    12:00 +30°C° 0 mm 2 m/s 749 mmHg 42%
    13:00 +31°C° 0 mm 2 m/s 749 mmHg 40%
    14:00 +31°C° 0 mm 2 m/s 749 mmHg 41%
    15:00 +31°C° 0 mm 2 m/s 749 mmHg 41%
    16:00 +31°C° 0 mm 3 m/s 749 mmHg 42%
    17:00 +29°C° 0 mm 2 m/s 749 mmHg 48%
    18:00 +27°C° 0 mm 2 m/s 749 mmHg 54%
    19:00 +25°C° 0 mm 2 m/s 749 mmHg 60%
    20:00 +25°C° 0 mm 2 m/s 750 mmHg 61%
    21:00 +24°C° 0 mm 1 m/s 751 mmHg 62%
    22:00 +23°C° 0 mm 1 m/s 751 mmHg 63%
    23:00 +22°C° 0 mm 1 m/s 751 mmHg 62%

    7 Junho, Domingo

    Tempo Temperatura Precipitação Vento Pressão Humidade
    00:00 +22°C° 0 mm 1 m/s 751 mmHg 62%
    01:00 +21°C° 0 mm 1 m/s 751 mmHg 61%
    02:00 +21°C° 0 mm 1 m/s 751 mmHg 60%
    03:00 +20°C° 0 mm 1 m/s 752 mmHg 59%
    04:00 +20°C° 0 mm 1 m/s 752 mmHg 58%
    05:00 +21°C° 0 mm 1 m/s 752 mmHg 56%
    06:00 +22°C° 0 mm 1 m/s 752 mmHg 54%
    07:00 +23°C° 0 mm 1 m/s 753 mmHg 52%
    08:00 +25°C° 0 mm 1 m/s 753 mmHg 49%
    09:00 +26°C° 0 mm 2 m/s 753 mmHg 46%
    10:00 +27°C° 0 mm 2 m/s 753 mmHg 43%
    11:00 +28°C° 0 mm 2 m/s 753 mmHg 42%
    12:00 +29°C° 0 mm 2 m/s 753 mmHg 42%
    13:00 +30°C° 0 mm 1 m/s 753 mmHg 41%
    14:00 +30°C° 0 mm 2 m/s 752 mmHg 43%
    15:00 +29°C° 0 mm 2 m/s 752 mmHg 44%
    16:00 +29°C° 0 mm 3 m/s 752 mmHg 46%
    17:00 +27°C° 0 mm 3 m/s 752 mmHg 53%
    18:00 +26°C° 0 mm 2 m/s 752 mmHg 60%
    19:00 +24°C° 0 mm 2 m/s 753 mmHg 68%
    20:00 +23°C° 0 mm 1 m/s 753 mmHg 69%
    21:00 +23°C° 0 mm 1 m/s 753 mmHg 71%
    22:00 +22°C° 0 mm 1 m/s 753 mmHg 73%
    23:00 +20°C° 0 mm 0 m/s 753 mmHg 74%
    Mostrar mais